Cherokee, IA

10:59 AM CST on December 04, 2016 (GMT -0600)
Cherokee Municipal

Weather History for KCKP - November, 2011

Change the Weather History Date:

Monday, November 7, 2011

  Actual Average Record
Temperature  
Mean Temperature 39 °F -  
Max Temperature 55 °F 48 °F 78 °F (1980)
Min Temperature 23 °F 25 °F -17 °F (1991)
Degree Days  
Heating Degree Days 26    
Moisture  
Dew Point 21 °F    
Average Humidity 56    
Maximum Humidity 93    
Minimum Humidity 23    
Precipitation  
Precipitation 0.00 in - - ()
Sea Level Pressure  
Sea Level Pressure 30.17 in    
Wind  
Wind Speed 1 mph (NNE)    
Max Wind Speed 7 mph    
Max Gust Speed -    
Visibility 10 miles    
Events      
Averages and records for this station are not official NWS values.
T = Trace of Precipitation, MM = Missing Value Source: NWS Daily Summary

Daily Weather History Graph

Daily Weather History Graph

Search for Another Location

Airport or City:

Trip Planner

Search our weather history database for the weather conditions in past years. The results will help you decide how hot, cold, wet, or windy it might be!

Date:

Astronomy

Nov. 07, 2011 Rise Set
Actual Time 7:03 AM CST 5:07 PM CST
Civil Twilight 6:33 AM CST 5:37 PM CST
Nautical Twilight 6:00 AM CST 6:11 PM CST
Astronomical Twilight 5:26 AM CST 6:44 PM CST
Moon 3:21 PM CST (11/7) 4:04 AM CST (11/7)
Length of Visible Light 11h 03m
Length of Day
10h 04m
Waxing Gibbous, 92% of the Moon is Illuminated
Nov 7
Waxing Gibbous
Nov 10
Full
Nov 18
Last Quarter
Nov 25
New
Dec 2
First Quarter

Hourly Weather History & Observations

Time (CST) Temp. Windchill Dew Point Humidity Pressure Visibility Wind Dir Wind Speed Gust Speed Precip Events Conditions
12:15 AM 32.0 °F - 23.0 °F 69% 30.06 in 10.0 mi Calm Calm - N/A   Clear
12:35 AM 28.4 °F - 21.2 °F 74% 30.07 in 10.0 mi Calm Calm - N/A   Clear
12:55 AM 28.4 °F - 23.0 °F 80% 30.07 in 10.0 mi Calm Calm - N/A   Clear
1:15 AM 28.4 °F 23.3 °F 23.0 °F 80% 30.08 in 10.0 mi SSE 4.6 mph - N/A   Clear
1:35 AM 24.8 °F - 21.2 °F 86% 30.08 in 10.0 mi Calm Calm - N/A   Clear
1:55 AM 24.8 °F - 21.2 °F 86% 30.08 in 10.0 mi Calm Calm - N/A   Clear
2:15 AM 28.4 °F - 23.0 °F 80% 30.09 in 10.0 mi Calm Calm - N/A   Clear
2:35 AM 28.4 °F 22.2 °F 23.0 °F 80% 30.10 in 10.0 mi South 5.8 mph - N/A   Clear
2:55 AM 24.8 °F 20.5 °F 21.2 °F 86% 30.11 in 10.0 mi SSW 3.5 mph - N/A   Clear
3:15 AM 26.6 °F - 23.0 °F 86% 30.11 in 10.0 mi Calm Calm - N/A   Clear
3:35 AM 28.4 °F - 24.8 °F 86% 30.12 in 10.0 mi Calm Calm - N/A   Clear
3:55 AM 28.4 °F - 23.0 °F 80% 30.13 in 10.0 mi Calm Calm - N/A   Clear
4:15 AM 26.6 °F - 23.0 °F 86% 30.13 in 10.0 mi Calm Calm - N/A   Clear
4:35 AM 23.0 °F - 21.2 °F 93% 30.14 in 10.0 mi Calm Calm - N/A   Clear
5:15 AM 24.8 °F - 21.2 °F 86% 30.15 in 10.0 mi Calm Calm - N/A   Clear
5:35 AM 23.0 °F - 19.4 °F 86% 30.16 in 10.0 mi Calm Calm - N/A   Clear
5:55 AM 24.8 °F - 21.2 °F 86% 30.16 in 10.0 mi Calm Calm - N/A   Clear
6:15 AM 24.8 °F - 23.0 °F 93% 30.17 in 10.0 mi Calm Calm - N/A   Clear
6:35 AM 26.6 °F - 23.0 °F 86% 30.17 in 10.0 mi Calm Calm - N/A   Clear
6:55 AM 23.0 °F - 21.2 °F 93% 30.18 in 10.0 mi Calm Calm - N/A   Clear
7:15 AM 23.0 °F - 21.2 °F 93% 30.18 in 10.0 mi Calm Calm - N/A   Clear
7:35 AM 23.0 °F - 21.2 °F 93% 30.19 in 10.0 mi Calm Calm - N/A   Clear
7:55 AM 24.8 °F - 23.0 °F 93% 30.20 in 10.0 mi Calm Calm - N/A   Clear
8:15 AM 28.4 °F - 26.6 °F 93% 30.22 in 10.0 mi Calm Calm - N/A   Clear
8:35 AM 30.2 °F - 26.6 °F 86% 30.22 in 10.0 mi Calm Calm - N/A   Clear
9:15 AM 33.8 °F - 28.4 °F 81% 30.23 in 7.0 mi Calm Calm - N/A   Clear
9:35 AM 37.4 °F - 28.4 °F 70% 30.23 in 10.0 mi Calm Calm - N/A   Clear
9:55 AM 41.0 °F - 23.0 °F 49% 30.23 in 10.0 mi Calm Calm - N/A   Clear
10:15 AM 42.8 °F - 23.0 °F 46% 30.22 in 10.0 mi Calm Calm - N/A   Clear
10:35 AM 44.6 °F - 21.2 °F 39% 30.23 in 10.0 mi Calm Calm - N/A   Clear
10:55 AM 46.4 °F 45.2 °F 19.4 °F 34% 30.23 in 10.0 mi North 3.5 mph - N/A   Clear
11:15 AM 48.2 °F - 19.4 °F 32% 30.23 in 10.0 mi North 3.5 mph - N/A   Clear
11:35 AM 50.0 °F - 19.4 °F 30% 30.22 in 10.0 mi North 4.6 mph - N/A   Clear
11:55 AM 50.0 °F - 19.4 °F 30% 30.21 in 10.0 mi North 6.9 mph - N/A   Clear
12:15 PM 51.8 °F - 19.4 °F 28% 30.19 in 10.0 mi North 4.6 mph - N/A   Clear
12:35 PM 51.8 °F - 17.6 °F 26% 30.19 in 10.0 mi NNW 5.8 mph - N/A   Clear
12:55 PM 53.6 °F - 19.4 °F 26% 30.18 in 10.0 mi Calm Calm - N/A   Clear
1:15 PM 53.6 °F - 17.6 °F 24% 30.17 in 10.0 mi North 3.5 mph - N/A   Clear
1:35 PM 55.4 °F - 17.6 °F 23% 30.16 in 10.0 mi NNE 5.8 mph - N/A   Clear
1:55 PM 53.6 °F - 17.6 °F 24% 30.16 in 10.0 mi NW 3.5 mph - N/A   Clear
2:15 PM 53.6 °F - 17.6 °F 24% 30.17 in 10.0 mi Calm Calm - N/A   Clear
2:35 PM 53.6 °F - 17.6 °F 24% 30.17 in 10.0 mi Calm Calm - N/A   Clear
2:55 PM 53.6 °F - 17.6 °F 24% 30.17 in 10.0 mi NE 4.6 mph - N/A   Clear
3:15 PM 53.6 °F - 17.6 °F 24% 30.17 in 10.0 mi North 3.5 mph - N/A   Clear
3:35 PM 51.8 °F - 17.6 °F 26% 30.18 in 10.0 mi Calm Calm - N/A   Clear
3:55 PM 51.8 °F - 19.4 °F 28% 30.18 in 10.0 mi Calm Calm - N/A   Clear
4:35 PM 51.8 °F - 17.6 °F 26% 30.17 in 10.0 mi North 3.5 mph - N/A   Clear
4:55 PM 50.0 °F - 19.4 °F 30% 30.17 in 10.0 mi NNE 3.5 mph - N/A   Clear
5:15 PM 50.0 °F - 19.4 °F 30% 30.18 in 10.0 mi Calm Calm - N/A   Clear
5:35 PM 48.2 °F - 19.4 °F 32% 30.19 in 10.0 mi Calm Calm - N/A   Clear
5:55 PM 48.2 °F - 19.4 °F 32% 30.19 in 7.0 mi NE 4.6 mph - N/A   Clear
6:15 PM 46.4 °F - 19.4 °F 34% 30.19 in 10.0 mi Calm Calm - N/A   Clear
6:35 PM 46.4 °F - 19.4 °F 34% 30.19 in 10.0 mi Calm Calm - N/A   Clear
6:55 PM 46.4 °F 45.2 °F 19.4 °F 34% 30.18 in 10.0 mi NNE 3.5 mph - N/A   Clear
7:15 PM 44.6 °F 42.2 °F 21.2 °F 39% 30.17 in 10.0 mi NNE 4.6 mph - N/A   Clear
7:35 PM 44.6 °F 42.2 °F 19.4 °F 37% 30.16 in 10.0 mi NNE 4.6 mph - N/A   Clear
8:15 PM 44.6 °F 42.2 °F 21.2 °F 39% 30.16 in 10.0 mi NNE 4.6 mph - N/A   Clear
8:35 PM 44.6 °F 42.2 °F 21.2 °F 39% 30.16 in 10.0 mi NNE 4.6 mph - N/A   Clear
8:55 PM 44.6 °F 41.4 °F 21.2 °F 39% 30.17 in 10.0 mi North 5.8 mph - N/A   Clear
9:15 PM 44.6 °F 43.1 °F 21.2 °F 39% 30.17 in 10.0 mi NNE 3.5 mph - N/A   Clear
9:36 PM 46.4 °F 42.9 °F 19.4 °F 34% 30.16 in 10.0 mi NE 6.9 mph - N/A   Clear
9:55 PM 46.4 °F 43.5 °F 19.4 °F 34% 30.16 in 10.0 mi NE 5.8 mph - N/A   Clear
10:15 PM 46.4 °F 42.4 °F 21.2 °F 37% 30.18 in 10.0 mi NE 8.1 mph - N/A   Drizzle
10:35 PM 46.4 °F 42.9 °F 24.8 °F 43% 30.16 in 10.0 mi ENE 6.9 mph - N/A   Light Drizzle
10:55 PM 46.4 °F 43.5 °F 24.8 °F 43% 30.16 in 10.0 mi ENE 5.8 mph - N/A   Light Drizzle
11:15 PM 46.4 °F - 26.6 °F 46% 30.15 in 10.0 mi Calm Calm - N/A   Clear
11:35 PM 44.6 °F 42.2 °F 28.4 °F 53% 30.15 in 10.0 mi NE 4.6 mph - N/A   Clear
11:55 PM 44.6 °F 42.2 °F 24.8 °F 46% 30.15 in 10.0 mi NNE 4.6 mph - N/A   Clear